FW0696 Weather Reports


time (UTC)temp
F
wind
direction
speed
knots
gust
knots
rain 1hr
in
rain 24hr
in
rain mn
in
humidity
%
barometer
mb
20260505100039 36 171 0.9 3.5 0.00 0.02 0.02 86 1026.5
20260505094538 36 150 0.9 3.5 0.00 0.02 0.02 86 1026.2
20260505093038 36 153 0.9 3.5 0.00 0.02 0.02 86 1026.2
20260505091538 37 142 0.9 3.5 0.00 0.02 0.02 87 1026.3
20260505090035 37 198 0.0 1.7 0.00 0.02 0.02 87 1026.4
20260505084552 38 153 0.9 3.5 0.00 0.02 0.02 87 1026.5
20260505083053 38 94 0.0 2.6 0.00 0.02 0.02 87 1026.7
20260505081551 38 108 0.0 3.5 0.00 0.02 0.02 87 1026.9
20260505080043 39 165 0.0 4.3 0.00 0.02 0.02 86 1026.9
20260505074531 39 146 0.0 5.2 0.00 0.02 0.02 86 1026.9
20260505073040 39 149 0.9 2.6 0.00 0.02 0.02 88 1026.9
20260505071541 40 162 0.9 3.5 0.00 0.02 0.02 88 1027.0
20260505070039 40 145 0.0 2.6 0.00 0.02 0.02 90 1027.0
20260505064529 41 143 0.0 2.6 0.00 0.02 0.02 90 1027.0
20260505063036 43 160 0.0 2.6 0.00 0.02 0.02 93 1027.0
20260505061530 43 162 0.0 1.7 0.00 0.02 0.02 93 1026.8
20260505060127 44 162 0.0 3.5 0.00 0.02 0.02 93 1027.0
20260505054528 45 146 0.0 0.0 0.00 0.02 0.02 91 1026.9
20260505053025 46 167 0.0 1.7 0.00 0.02 0.02 90 1026.8
20260505051525 47 124 0.0 2.6 0.00 0.02 0.02 87 1026.8
20260505041521 59 45 0.0 0.0 0.00 0.02 0.02 70 1026.9
20260505040022 59 43 0.0 0.9 0.00 0.02 0.02 70 1027.1
20260505034517 58 297 0.0 1.7 0.00 0.02 0.02 69 1027.1
20260505033018 59 309 0.0 1.7 0.00 0.02 0.02 69 1027.0
20260505031515 59 331 0.0 0.0 0.00 0.02 0.02 69 1027.1
20260505030012 59 328 0.0 0.0 0.00 0.02 0.02 70 1027.3
20260505024511 59 4 0.0 0.9 0.00 0.02 0.02 70 1027.4
20260505023008 59 342 0.0 0.9 0.00 0.02 0.02 71 1027.5
20260505021504 58 1 0.0 0.0 0.00 0.02 0.02 72 1027.8
20260505014610 56 310 0.0 2.6 0.00 0.02 0.02 75 1028.3
20260505013057 56 314 0.0 2.6 0.00 0.02 0.02 75 1028.5
20260505011556 55 313 0.0 0.0 0.00 0.02 0.02 78 1028.5
20260505010055 53 326 0.0 0.9 0.00 0.02 0.02 82 1028.8
20260505004549 52 334 0.0 1.7 0.00 0.02 0.02 84 1029.2
20260505003053 51 323 0.0 0.9 0.00 0.02 0.02 86 1029.4
20260505001538 50 349 0.0 2.6 0.00 0.02 0.02 88 1029.5
20260505000035 50 311 0.0 3.5 0.00 0.02 0.02 89 1030.1
20260504234528 49 358 0.0 1.7 0.00 0.02 0.02 92 1030.1
20260504233024 47 328 0.0 0.0 0.00 0.02 0.02 94 1030.3
20260504231520 46 11 0.0 0.0 0.00 0.02 0.02 96 1030.5
20260504230017 45 272 0.0 0.0 0.00 0.02 0.02 98 1030.7
20260504224517 43 271 0.0 0.0 0.00 0.02 0.02 99 1030.9
20260504223012 42 234 0.0 0.0 0.01 0.02 0.02 99 1031.0
20260504221505 40 211 0.0 0.9 0.01 0.02 0.02 99 1031.3
20260504220004 39 210 0.0 0.0 0.01 0.02 0.02 99 1031.3
20260504214558 37 210 0.0 0.9 0.01 0.02 0.02 99 1031.5
20260504213056 35 141 0.0 1.7 0.00 0.01 0.01 99 1031.6
20260504211637 33 168 0.0 0.0 0.00 0.01 0.01 98 1031.9
20260504210053 33 139 0.0 0.9 0.00 0.01 0.01 98 1031.8
20260504204550 31 147 0.0 0.9 0.00 0.01 0.01 98 1031.9
20260504203050 31 157 0.0 1.7 0.00 0.01 0.01 97 1031.9
20260504201552 31 148 0.0 2.6 0.00 0.01 0.01 98 1031.9
20260504200052 31 145 0.0 1.7 0.00 0.02 0.01 97 1032.0
20260504194554 31 164 0.0 2.6 0.00 0.02 0.01 98 1032.1
20260504193047 31 214 0.0 2.6 0.00 0.02 0.01 98 1031.9
20260504191603 31 162 0.9 2.6 0.00 0.02 0.01 97 1032.0
20260504190050 31 137 0.9 3.5 0.00 0.02 0.01 97 1032.2
20260504184549 31 154 0.9 2.6 0.00 0.02 0.01 97 1032.3
20260504183039 31 164 0.0 1.7 0.00 0.02 0.01 97 1032.3
20260504181538 31 152 0.0 1.7 0.00 0.02 0.01 97 1032.3
20260504180036 31 188 0.0 0.9 0.00 0.02 0.01 97 1032.3
20260504174537 31 127 0.0 1.7 0.00 0.02 0.01 97 1032.2
20260504173033 32 160 0.0 1.7 0.00 0.02 0.01 97 1032.3
20260504171531 32 155 0.0 3.5 0.00 0.02 0.01 97 1032.2